Tracking 35275 objects as of 9-Sep-2026
HD Live streaming from Space Station
objects crossing your sky now

IRIDIUM 33 DEB


IRIDIUM 33 DEB is no longer on orbit


NORAD ID: 33861
Int'l Code: 1997-051AE
Launch date: September 14, 1997
Source: United States (US)
Launch site: TYURATAM MISSILE AND SPACE COMPLEX (TTMTR)
Decay date: 2011-09-19

Note: This is SATELLITE DEBRIS
Your satellite tracking list
Your tracking list is empty




NASA's NSSDC Master Catalog

Two Line Element Set (TLE):
1 33861U 97051AE  11259.79210421  .04431635  00000-0  46515-1 0  9995
2 33861 086.3710 064.4388 0024461 279.9495 079.9516 15.60303915139152
Source of the keplerian elements: AFSPC